EZY26HM EDDH-EGKK

Flight info

Callsign EZY26HM
Flight time 0h 58m
Altitude 38000
Route WSN5G WSN N125 ITMIZ DCT GALSO Q63 ARREK Y4 TEBRA
Aircraft A20N/M-SDE2E3FGHIJ1RWXY/LB1

Departure

Time 2026-04-23 03:02
Airport Hamburg Helmut Schmidt Airport (EDDH)

Arrival

Time 2026-04-23 04:01
Airport London Gatwick Airport (EGKK)
Time Latitude Longitude Altitude Speed Heading
2026-04-23 02:29 53.62965 10.00291 46 ft 0 kts 122°
2026-04-23 02:50 53.62965 10.00289 50 ft 1 kts 122°
2026-04-23 02:51 53.62974 10.00266 48 ft 3 kts 119°
2026-04-23 02:51 53.62984 10.00236 46 ft 3 kts 121°
2026-04-23 02:51 53.62994 10.00208 48 ft 3 kts 132°
2026-04-23 02:51 53.63009 10.00187 49 ft 3 kts 158°
2026-04-23 02:52 53.63027 10.00181 50 ft 3 kts 199°
2026-04-23 02:52 53.63035 10.00186 50 ft 0 kts 213°
2026-04-23 02:56 53.63035 10.00185 50 ft 0 kts 213°
2026-04-23 02:56 53.63017 10.00166 48 ft 6 kts 213°
2026-04-23 02:56 53.63004 10.00151 49 ft 0 kts 213°
2026-04-23 02:57 53.63002 10.00150 49 ft 0 kts 213°
2026-04-23 02:57 53.62999 10.00146 49 ft 3 kts 213°
2026-04-23 02:58 53.62962 10.00108 50 ft 9 kts 210°
2026-04-23 02:58 53.62911 10.00053 49 ft 8 kts 211°
2026-04-23 02:58 53.62844 10.00072 50 ft 13 kts 151°
2026-04-23 02:58 53.62744 10.00158 50 ft 19 kts 153°
2026-04-23 02:59 53.62647 10.00241 50 ft 12 kts 151°
2026-04-23 02:59 53.62592 10.00257 50 ft 5 kts 213°
2026-04-23 02:59 53.62584 10.00243 50 ft 3 kts 227°
2026-04-23 02:59 53.62571 10.00210 49 ft 3 kts 243°
2026-04-23 03:00 53.62565 10.00188 49 ft 4 kts 244°
2026-04-23 03:00 53.62545 10.00117 45 ft 10 kts 246°
2026-04-23 03:00 53.62544 10.00039 46 ft 6 kts 291°
2026-04-23 03:00 53.62579 9.99992 46 ft 8 kts 332°
2026-04-23 03:01 53.62637 9.99942 47 ft 10 kts 333°
2026-04-23 03:01 53.62819 9.99785 48 ft 61 kts 331°
2026-04-23 03:01 53.63380 9.99301 50 ft 117 kts 333°
2026-04-23 03:01 53.64223 9.98573 48 ft 157 kts 332°
2026-04-23 03:02 53.65225 9.97735 499 ft 158 kts 331°
2026-04-23 03:02 53.66193 9.96914 1158 ft 155 kts 330°
2026-04-23 03:02 53.67136 9.96084 1862 ft 152 kts 332°
2026-04-23 03:02 53.68080 9.95249 2292 ft 163 kts 333°
2026-04-23 03:03 53.69147 9.94324 2596 ft 184 kts 333°
2026-04-23 03:03 53.70365 9.93242 3007 ft 204 kts 325°
2026-04-23 03:03 53.71214 9.91400 4069 ft 204 kts 297°
2026-04-23 03:03 53.71508 9.88960 4920 ft 219 kts 271°
2026-04-23 03:04 53.71108 9.86477 5873 ft 230 kts 255°
2026-04-23 03:04 53.70533 9.83822 6465 ft 251 kts 255°
2026-04-23 03:04 53.69904 9.80940 7094 ft 269 kts 254°
2026-04-23 03:04 53.69259 9.77943 7976 ft 274 kts 254°
2026-04-23 03:05 53.68623 9.74886 8953 ft 278 kts 254°
2026-04-23 03:05 53.67996 9.71777 9926 ft 281 kts 254°
2026-04-23 03:05 53.67372 9.68615 10753 ft 290 kts 254°
2026-04-23 03:05 53.66712 9.65247 11107 ft 314 kts 254°
2026-04-23 03:06 53.65998 9.61615 11453 ft 336 kts 253°
2026-04-23 03:06 53.65072 9.57949 12186 ft 345 kts 245°
2026-04-23 03:06 53.63808 9.54470 12980 ft 352 kts 236°
2026-04-23 03:06 53.62343 9.51095 13780 ft 358 kts 236°
2026-04-23 03:07 53.60872 9.47685 14530 ft 363 kts 236°
2026-04-23 03:07 53.59384 9.44227 15280 ft 367 kts 236°
2026-04-23 03:07 53.57875 9.40720 16014 ft 371 kts 236°
2026-04-23 03:07 53.56373 9.37232 16735 ft 375 kts 236°
2026-04-23 03:08 53.54830 9.33652 17455 ft 379 kts 236°
2026-04-23 03:08 53.53275 9.30052 18168 ft 383 kts 236°
2026-04-23 03:08 53.51698 9.26403 18843 ft 388 kts 236°
2026-04-23 03:08 53.50101 9.22716 19447 ft 392 kts 235°
2026-04-23 03:09 53.48486 9.18991 20034 ft 396 kts 235°
2026-04-23 03:09 53.46857 9.15236 20624 ft 400 kts 234°
2026-04-23 03:09 53.45208 9.11440 21211 ft 405 kts 234°
2026-04-23 03:09 53.43539 9.07607 21788 ft 409 kts 234°
2026-04-23 03:10 53.41852 9.03744 22369 ft 413 kts 233°
2026-04-23 03:10 53.40138 8.99826 22924 ft 418 kts 233°
2026-04-23 03:10 53.38413 8.95886 23500 ft 422 kts 233°
2026-04-23 03:10 53.36663 8.91892 24039 ft 426 kts 233°
2026-04-23 03:11 53.35045 8.87704 24502 ft 430 kts 240°
2026-04-23 03:11 53.33770 8.83214 24956 ft 435 kts 248°
2026-04-23 03:11 53.32718 8.78442 25398 ft 439 kts 250°
2026-04-23 03:11 53.31663 8.73628 25835 ft 443 kts 249°
2026-04-23 03:12 53.30594 8.68783 26265 ft 446 kts 249°
2026-04-23 03:12 53.29508 8.63884 26679 ft 450 kts 249°
2026-04-23 03:12 53.28422 8.58941 27100 ft 454 kts 249°
2026-04-23 03:12 53.27335 8.53971 27490 ft 458 kts 249°
2026-04-23 03:13 53.26234 8.48941 27898 ft 461 kts 249°
2026-04-23 03:13 53.25212 8.43859 28280 ft 465 kts 252°
2026-04-23 03:13 53.24258 8.38674 28654 ft 468 kts 252°
2026-04-23 03:13 53.23306 8.33440 29009 ft 472 kts 252°
2026-04-23 03:14 53.22338 8.28195 29359 ft 475 kts 252°
2026-04-23 03:14 53.21363 8.22988 29698 ft 478 kts 251°
2026-04-23 03:14 53.20358 8.17682 30024 ft 481 kts 251°
2026-04-23 03:14 53.19340 8.12345 30359 ft 484 kts 251°
2026-04-23 03:15 53.18317 8.06974 30670 ft 487 kts 251°
2026-04-23 03:15 53.17297 8.01561 30988 ft 489 kts 251°
2026-04-23 03:15 53.16276 7.96136 31298 ft 492 kts 251°
2026-04-23 03:15 53.15246 7.90690 31633 ft 493 kts 251°
2026-04-23 03:16 53.14213 7.85242 32028 ft 493 kts 250°
2026-04-23 03:16 53.13177 7.79802 32440 ft 492 kts 250°
2026-04-23 03:16 53.11099 7.68947 33221 ft 492 kts 250°
2026-04-23 03:17 53.09888 7.63647 33602 ft 489 kts 242°
2026-04-23 03:17 53.08449 7.58528 33987 ft 488 kts 242°
2026-04-23 03:17 53.07027 7.53473 34347 ft 487 kts 242°
2026-04-23 03:17 53.05602 7.48387 34686 ft 486 kts 242°
2026-04-23 03:18 53.04133 7.43136 35048 ft 484 kts 242°
2026-04-23 03:18 53.00660 7.30749 35840 ft 481 kts 242°
2026-04-23 03:18 52.94985 7.10720 36977 ft 478 kts 241°
2026-04-23 03:18 52.89304 6.90859 37966 ft 475 kts 241°
2026-04-23 03:19 52.83628 6.71180 38442 ft 473 kts 241°
2026-04-23 03:19 52.77919 6.51533 38467 ft 473 kts 241°
2026-04-23 03:19 52.69409 6.22544 38435 ft 473 kts 241°
2026-04-23 03:20 52.63620 6.03026 38439 ft 474 kts 241°
2026-04-23 03:20 52.57799 5.83560 38451 ft 474 kts 240°
2026-04-23 03:21 52.51945 5.64139 38461 ft 474 kts 240°
2026-04-23 03:21 52.46094 5.44884 38463 ft 473 kts 240°
2026-04-23 03:22 52.41260 5.29094 38457 ft 472 kts 240°
2026-04-23 03:22 52.35346 5.09912 38439 ft 470 kts 240°
2026-04-23 03:23 52.29432 4.90888 38431 ft 468 kts 240°
2026-04-23 03:23 52.22952 4.70216 38419 ft 466 kts 240°
2026-04-23 03:24 52.16475 4.49715 38418 ft 464 kts 241°
2026-04-23 03:24 52.09810 4.28802 38437 ft 467 kts 241°
2026-04-23 03:25 52.02724 4.06761 38443 ft 467 kts 241°
2026-04-23 03:25 51.97049 3.89245 38437 ft 467 kts 241°
2026-04-23 03:26 51.90969 3.70628 38434 ft 466 kts 241°
2026-04-23 03:26 51.84872 3.52091 38437 ft 465 kts 241°
2026-04-23 03:27 51.78769 3.33669 38431 ft 465 kts 241°
2026-04-23 03:27 51.73344 3.14959 38418 ft 463 kts 255°
2026-04-23 03:28 51.71663 2.98577 38415 ft 462 kts 263°
2026-04-23 03:28 51.70775 2.88296 38193 ft 464 kts 263°
2026-04-23 03:29 51.70322 2.83142 37920 ft 463 kts 263°
2026-04-23 03:29 51.69868 2.78007 37649 ft 462 kts 263°
2026-04-23 03:29 51.69411 2.72876 37282 ft 463 kts 263°
2026-04-23 03:29 51.68951 2.67728 36641 ft 465 kts 263°
2026-04-23 03:30 51.68488 2.62559 35833 ft 469 kts 263°
2026-04-23 03:30 51.68017 2.57304 34897 ft 474 kts 263°
2026-04-23 03:30 51.67541 2.52030 33867 ft 477 kts 263°
2026-04-23 03:30 51.67063 2.46766 32678 ft 475 kts 263°
2026-04-23 03:31 51.66585 2.41540 31524 ft 475 kts 263°
2026-04-23 03:31 51.66103 2.36314 30523 ft 470 kts 263°
2026-04-23 03:31 51.65627 2.31164 29647 ft 461 kts 264°
2026-04-23 03:31 51.65156 2.26112 28945 ft 450 kts 264°
2026-04-23 03:32 51.64694 2.21140 28198 ft 448 kts 264°
2026-04-23 03:32 51.64232 2.16192 27455 ft 446 kts 264°
2026-04-23 03:32 51.63770 2.11276 26726 ft 444 kts 264°
2026-04-23 03:32 51.63311 2.06361 26009 ft 443 kts 264°
2026-04-23 03:33 51.62859 2.01455 25253 ft 442 kts 264°
2026-04-23 03:33 51.62409 1.96574 24526 ft 442 kts 264°
2026-04-23 03:33 51.61956 1.91690 23778 ft 441 kts 264°
2026-04-23 03:33 51.61381 1.86853 23019 ft 440 kts 255°
2026-04-23 03:34 51.60214 1.82391 22337 ft 436 kts 241°
2026-04-23 03:34 51.58476 1.78555 21660 ft 425 kts 229°
2026-04-23 03:34 51.56514 1.75012 20960 ft 423 kts 229°
2026-04-23 03:34 51.54565 1.71483 20263 ft 422 kts 229°
2026-04-23 03:35 51.52620 1.67957 19580 ft 420 kts 229°
2026-04-23 03:35 51.50687 1.64431 18917 ft 418 kts 231°
2026-04-23 03:35 51.49035 1.60644 18260 ft 410 kts 240°
2026-04-23 03:35 51.47812 1.56589 17579 ft 398 kts 250°
2026-04-23 03:36 51.46879 1.52468 16893 ft 389 kts 251°
2026-04-23 03:36 51.45960 1.48423 16219 ft 381 kts 250°
2026-04-23 03:36 51.45062 1.44506 15568 ft 375 kts 250°
2026-04-23 03:36 51.44109 1.40597 14933 ft 368 kts 243°
2026-04-23 03:37 51.42746 1.37251 14833 ft 362 kts 229°
2026-04-23 03:37 51.40876 1.34432 14812 ft 372 kts 216°
2026-04-23 03:37 51.38804 1.31977 14654 ft 370 kts 215°
2026-04-23 03:37 51.36751 1.29548 14081 ft 374 kts 215°
2026-04-23 03:38 51.34619 1.27027 13525 ft 374 kts 215°
2026-04-23 03:38 51.32596 1.24635 13366 ft 360 kts 215°
2026-04-23 03:38 51.30562 1.22232 13185 ft 360 kts 215°
2026-04-23 03:38 51.28567 1.19882 13006 ft 361 kts 215°
2026-04-23 03:39 51.26559 1.17518 12812 ft 358 kts 215°
2026-04-23 03:39 51.24561 1.15168 12629 ft 357 kts 215°
2026-04-23 03:39 51.22565 1.12824 12438 ft 356 kts 214°
2026-04-23 03:39 51.20569 1.10481 12249 ft 355 kts 214°
2026-04-23 03:40 51.18588 1.08158 12070 ft 354 kts 214°
2026-04-23 03:40 51.16606 1.05837 11875 ft 353 kts 214°
2026-04-23 03:40 51.14631 1.03528 11695 ft 352 kts 214°
2026-04-23 03:40 51.12655 1.01220 11508 ft 350 kts 214°
2026-04-23 03:41 51.10692 0.98928 11325 ft 349 kts 214°
2026-04-23 03:41 51.08738 0.96649 11132 ft 347 kts 214°
2026-04-23 03:41 51.06838 0.94283 10958 ft 347 kts 221°
2026-04-23 03:41 51.05285 0.91352 10818 ft 345 kts 235°
2026-04-23 03:42 51.04184 0.88035 10698 ft 332 kts 244°
2026-04-23 03:42 51.03238 0.84799 10532 ft 314 kts 243°
2026-04-23 03:42 51.02325 0.81712 10113 ft 305 kts 243°
2026-04-23 03:42 51.01443 0.78756 9922 ft 297 kts 243°
2026-04-23 03:43 51.00550 0.75777 9834 ft 300 kts 243°
2026-04-23 03:43 50.99655 0.72796 9747 ft 298 kts 242°
2026-04-23 03:43 50.98762 0.69823 9631 ft 298 kts 242°
2026-04-23 03:43 50.97872 0.66858 9475 ft 297 kts 242°
2026-04-23 03:44 50.96984 0.63907 9319 ft 296 kts 242°
2026-04-23 03:44 50.96096 0.60963 9162 ft 295 kts 242°
2026-04-23 03:44 50.95213 0.58034 9002 ft 294 kts 242°
2026-04-23 03:44 50.94331 0.55114 8851 ft 293 kts 242°
2026-04-23 03:45 50.93451 0.52206 8736 ft 293 kts 242°
2026-04-23 03:45 50.92569 0.49293 8599 ft 293 kts 242°
2026-04-23 03:45 50.91735 0.46362 8435 ft 293 kts 251°
2026-04-23 03:45 50.91510 0.43152 8281 ft 296 kts 275°
2026-04-23 03:46 50.92002 0.39978 8132 ft 297 kts 286°
2026-04-23 03:46 50.92194 0.38960 8076 ft 296 kts 286°
2026-04-23 03:46 50.92703 0.36257 7943 ft 295 kts 286°
2026-04-23 03:46 50.93285 0.33143 7807 ft 294 kts 286°
2026-04-23 03:47 50.93851 0.30086 7724 ft 284 kts 285°
2026-04-23 03:47 50.94420 0.27184 7555 ft 269 kts 291°
2026-04-23 03:47 50.95289 0.24592 7158 ft 264 kts 306°
2026-04-23 03:47 50.96420 0.22309 6679 ft 263 kts 310°
2026-04-23 03:48 50.97585 0.20077 6221 ft 262 kts 310°
2026-04-23 03:48 50.98727 0.17831 5771 ft 260 kts 310°
2026-04-23 03:48 50.99824 0.15596 5331 ft 259 kts 309°
2026-04-23 03:48 51.00914 0.13325 4820 ft 257 kts 309°
2026-04-23 03:49 51.01985 0.11072 4422 ft 254 kts 307°
2026-04-23 03:49 51.02713 0.08551 3948 ft 253 kts 278°
2026-04-23 03:49 51.02711 0.05827 3713 ft 241 kts 262°
2026-04-23 03:49 51.02514 0.03140 3674 ft 247 kts 262°
2026-04-23 03:50 51.02392 0.00443 3645 ft 244 kts 266°
2026-04-23 03:50 51.02377 -0.02271 3625 ft 247 kts 269°
2026-04-23 03:50 51.02437 -0.04996 3592 ft 245 kts 271°
2026-04-23 03:50 51.02534 -0.07686 3565 ft 245 kts 272°
2026-04-23 03:51 51.02645 -0.10387 3561 ft 245 kts 272°
2026-04-23 03:51 51.02760 -0.13093 3504 ft 244 kts 272°
2026-04-23 03:51 51.02873 -0.15733 3405 ft 235 kts 272°
2026-04-23 03:51 51.02981 -0.18300 3244 ft 231 kts 272°
2026-04-23 03:52 51.03087 -0.20879 3218 ft 235 kts 272°
2026-04-23 03:52 51.03194 -0.23465 3196 ft 234 kts 272°
2026-04-23 03:52 51.03301 -0.26018 3157 ft 235 kts 272°
2026-04-23 03:52 51.03410 -0.28603 3152 ft 234 kts 272°
2026-04-23 03:53 51.03519 -0.31187 3101 ft 235 kts 272°
2026-04-23 03:53 51.03629 -0.33783 3038 ft 234 kts 272°
2026-04-23 03:53 51.03739 -0.36362 2996 ft 234 kts 272°
2026-04-23 03:53 51.03839 -0.38948 2990 ft 234 kts 271°
2026-04-23 03:54 51.03935 -0.41530 2996 ft 235 kts 271°
2026-04-23 03:54 51.04036 -0.44122 2991 ft 234 kts 271°
2026-04-23 03:54 51.04140 -0.46704 2993 ft 233 kts 271°
2026-04-23 03:54 51.04248 -0.49211 2995 ft 224 kts 271°
2026-04-23 03:55 51.04612 -0.51607 2997 ft 227 kts 300°
2026-04-23 03:55 51.05714 -0.53356 2995 ft 224 kts 336°
2026-04-23 03:55 51.07177 -0.53846 2999 ft 217 kts 12°
2026-04-23 03:55 51.08555 -0.53078 2993 ft 208 kts 38°
2026-04-23 03:56 51.09613 -0.51590 2994 ft 200 kts 57°
2026-04-23 03:56 51.10322 -0.49743 2997 ft 197 kts 70°
2026-04-23 03:56 51.10798 -0.47702 2995 ft 195 kts 78°
2026-04-23 03:56 51.11134 -0.45614 2997 ft 195 kts 81°
2026-04-23 03:57 51.11430 -0.43521 2996 ft 194 kts 81°
2026-04-23 03:57 51.11723 -0.41413 2927 ft 195 kts 81°
2026-04-23 03:57 51.12003 -0.39405 2684 ft 178 kts 81°
2026-04-23 03:57 51.12256 -0.37573 2425 ft 161 kts 82°
2026-04-23 03:58 51.12485 -0.35911 2204 ft 147 kts 82°
2026-04-23 03:58 51.12699 -0.34353 2004 ft 146 kts 82°
2026-04-23 03:58 51.12918 -0.32756 1795 ft 147 kts 81°
2026-04-23 03:58 51.13134 -0.31193 1593 ft 146 kts 80°
2026-04-23 03:59 51.13347 -0.29658 1465 ft 131 kts 79°
2026-04-23 03:59 51.13534 -0.28298 1390 ft 129 kts 79°
2026-04-23 03:59 51.13733 -0.26843 1270 ft 149 kts 78°
2026-04-23 03:59 51.13973 -0.25081 1044 ft 168 kts 78°
2026-04-23 04:00 51.14220 -0.23337 690 ft 159 kts 76°
2026-04-23 04:00 51.14460 -0.21658 409 ft 152 kts 79°
2026-04-23 04:00 51.14677 -0.20050 212 ft 142 kts 78°
2026-04-23 04:00 51.14862 -0.18696 206 ft 99 kts 77°
2026-04-23 04:01 51.14987 -0.17955 214 ft 41 kts 59°
2026-04-23 04:01 51.15064 -0.17785 207 ft 14 kts 48°
2026-04-23 04:01 51.15154 -0.17768 205 ft 14 kts 351°
2026-04-23 04:01 51.15249 -0.17770 208 ft 13 kts 30°
2026-04-23 04:02 51.15277 -0.17628 212 ft 16 kts 77°
2026-04-23 04:02 51.15297 -0.17465 207 ft 13 kts 82°
2026-04-23 04:02 51.15307 -0.17312 210 ft 12 kts 82°
2026-04-23 04:02 51.15341 -0.17239 209 ft 7 kts 358°
2026-04-23 04:03 51.15383 -0.17240 209 ft 5 kts 38°
2026-04-23 04:03 51.15388 -0.17192 212 ft 5 kts 82°
2026-04-23 04:03 51.15408 -0.17127 213 ft 8 kts 71°
2026-04-23 04:03 51.15421 -0.17039 208 ft 6 kts 71°
2026-04-23 04:04 51.15458 -0.17025 207 ft 5 kts 357°
2026-04-23 04:04 51.15466 -0.17027 204 ft 0 kts 349°
2026-04-23 04:04 51.15468 -0.17027 204 ft 1 kts 349°
2026-04-23 04:04 51.15480 -0.17031 208 ft 0 kts 349°